Location: Unspecified
(0.0000°N, 0.0000°E)
Time: 01:04:58
(UTC+00:00)

AAUSAT CUBESAT 2 - Visible Passes

Search period start: 17 January 2018 00:00
Search period end: 27 January 2018 00:00
Orbit: 576 x 594 km, 97.5° (Epoch: 16 January)

Date Brightness Start Highest point End Pass type
(mag) Time Alt. Az. Time Alt. Az. Time Alt. Az.
17 Jan ? 19:38:29 10° S 19:42:37 64° WSW 19:46:44 10° NNW visible
18 Jan ? 19:44:59 10° S 19:49:03 50° WSW 19:53:03 10° NNW visible
19 Jan ? 19:51:32 10° S 19:55:27 40° WSW 19:59:20 10° NNW visible
20 Jan ? 19:58:08 10° SSW 20:01:52 32° WSW 20:05:33 10° NW visible
21 Jan ? 20:04:48 10° SSW 20:08:16 26° WSW 20:11:42 10° NW visible
22 Jan ? 18:37:15 10° ESE 18:39:30 14° ENE 18:41:45 10° NE visible
22 Jan ? 20:11:33 10° SSW 20:14:40 21° WSW 20:17:47 10° NW visible
23 Jan ? 18:43:06 10° ESE 18:45:55 18° ENE 18:48:43 10° NE visible
23 Jan ? 20:18:24 10° SW 20:21:04 17° WSW 20:23:45 10° WNW visible
24 Jan ? 18:49:06 10° SE 18:52:19 22° E 18:55:31 10° NNE visible
24 Jan ? 20:25:25 10° SW 20:27:29 13° WSW 20:29:31 10° WNW visible
25 Jan ? 18:55:12 10° SE 18:58:44 27° E 19:02:14 10° NNE visible
25 Jan ? 20:32:57 10° WSW 20:33:52 11° WSW 20:34:48 10° W visible
26 Jan ? 19:01:22 10° SE 19:05:08 33° ENE 19:08:52 10° NNE visible
